Time,TemperatureF,DewpointF,PressureIn,WindDirection,WindDirectionDegrees,WindSpeedMPH,WindSpeedGustMPH,Humidity,HourlyPrecipIn,Conditions,Clouds,dailyrainin,SoftwareType,DateUTC
2013-06-02 00:01:00,60.4,58.1,29.62,NNW,346,0.0,2.0,92,0.00,,,0.00,meteohub,2013-06-02 04:01:00,
2013-06-02 00:02:00,60.4,58.1,29.62,NNW,345,0.0,2.0,92,0.00,,,0.00,meteohub,2013-06-02 04:02:00,
2013-06-02 00:07:00,60.4,58.1,29.62,NE,40,0.0,1.0,92,0.00,,,0.00,meteohub,2013-06-02 04:07:00,
2013-06-02 00:12:00,60.4,58.1,29.61,NE,51,1.0,1.0,92,0.00,,,0.00,meteohub,2013-06-02 04:12:00,
2013-06-02 00:16:00,60.3,58.3,29.60,NW,317,0.0,2.0,93,0.00,,,0.00,meteohub,2013-06-02 04:16:00,
2013-06-02 00:22:00,60.4,58.5,29.60,NW,325,0.0,2.0,93,0.00,,,0.00,meteohub,2013-06-02 04:22:00,
2013-06-02 00:27:00,60.4,58.5,29.60,NW,323,0.0,2.0,93,0.00,,,0.00,meteohub,2013-06-02 04:27:00,
2013-06-02 00:32:00,60.4,58.5,29.60,NW,323,0.0,1.0,93,0.00,,,0.00,meteohub,2013-06-02 04:32:00,
2013-06-02 00:37:00,60.6,58.6,29.60,WNW,285,1.0,1.0,93,0.00,,,0.00,meteohub,2013-06-02 04:37:00,
2013-06-02 00:42:00,60.6,58.6,29.60,West,262,2.0,2.0,93,0.00,,,0.00,meteohub,2013-06-02 04:42:00,
2013-06-02 00:47:00,60.6,58.6,29.61,WSW,257,0.0,3.0,93,0.00,,,0.00,meteohub,2013-06-02 04:47:00,
2013-06-02 00:52:00,61.0,59.0,29.61,WNW,288,0.0,3.0,93,0.00,,,0.00,meteohub,2013-06-02 04:52:00,
2013-06-02 00:57:00,61.2,59.2,29.62,SSW,211,0.0,3.0,93,0.00,,,0.00,meteohub,2013-06-02 04:57:00,
2013-06-02 01:02:00,61.3,59.4,29.62,SSW,211,0.0,2.0,93,0.00,,,0.00,meteohub,2013-06-02 05:02:00,
2013-06-02 01:07:00,61.3,59.0,29.62,SSW,213,0.0,1.0,92,0.00,,,0.00,meteohub,2013-06-02 05:07:00,
2013-06-02 01:12:00,61.2,59.2,29.63,SSW,202,0.0,1.0,93,0.00,,,0.00,meteohub,2013-06-02 05:12:00,
2013-06-02 01:17:00,61.2,59.2,29.62,North,356,0.0,3.0,93,0.00,,,0.00,meteohub,2013-06-02 05:17:00,
2013-06-02 01:22:00,61.3,59.4,29.62,WNW,292,0.0,3.0,93,0.00,,,0.00,meteohub,2013-06-02 05:22:00,
2013-06-02 01:27:00,61.3,59.4,29.62,NE,37,1.0,3.0,93,0.00,,,0.00,meteohub,2013-06-02 05:27:00,
2013-06-02 01:32:00,61.3,59.4,29.61,NE,44,0.0,2.0,93,0.00,,,0.00,meteohub,2013-06-02 05:32:00,
2013-06-02 01:37:00,61.3,59.4,29.61,NE,42,1.0,2.0,93,0.00,,,0.00,meteohub,2013-06-02 05:37:00,
2013-06-02 01:42:00,61.3,59.4,29.61,NE,42,0.0,2.0,93,0.00,,,0.00,meteohub,2013-06-02 05:42:00,
2013-06-02 01:47:00,61.3,59.0,29.60,NNE,28,1.0,2.0,92,0.00,,,0.00,meteohub,2013-06-02 05:47:00,
2013-06-02 01:52:00,61.3,59.4,29.60,ENE,58,1.0,3.0,93,0.00,,,0.00,meteohub,2013-06-02 05:52:00,
2013-06-02 01:57:00,61.3,59.4,29.60,ESE,122,0.0,3.0,93,0.00,,,0.00,meteohub,2013-06-02 05:57:00,
2013-06-02 02:02:00,61.3,59.4,29.61,SW,221,0.0,3.0,93,0.00,,,0.00,meteohub,2013-06-02 06:02:00,
2013-06-02 02:07:00,61.3,58.6,29.61,SSW,209,0.0,2.0,91,0.00,,,0.00,meteohub,2013-06-02 06:07:00,
2013-06-02 02:12:00,61.2,58.5,29.60,West,259,1.0,5.0,91,0.01,,,0.01,meteohub,2013-06-02 06:12:00,
2013-06-02 02:17:00,61.0,58.6,29.60,East,99,1.0,5.0,92,0.03,,,0.03,meteohub,2013-06-02 06:17:00,
2013-06-02 02:22:00,60.8,58.8,29.60,SSW,199,1.0,5.0,93,0.04,,,0.04,meteohub,2013-06-02 06:22:00,
2013-06-02 02:27:00,60.6,58.6,29.59,ESE,117,0.0,5.0,93,0.04,,,0.04,meteohub,2013-06-02 06:27:00,
2013-06-02 02:32:00,60.4,58.5,29.59,WNW,295,0.0,3.0,93,0.04,,,0.04,meteohub,2013-06-02 06:32:00,
2013-06-02 02:37:00,60.3,58.3,29.59,ENE,58,0.0,3.0,93,0.04,,,0.04,meteohub,2013-06-02 06:37:00,
2013-06-02 02:42:00,60.3,58.3,29.58,ENE,58,0.0,2.0,93,0.04,,,0.04,meteohub,2013-06-02 06:42:00,
2013-06-02 02:47:00,60.4,58.6,29.59,ENE,58,0.0,2.0,94,0.04,,,0.04,meteohub,2013-06-02 06:47:00,
2013-06-02 02:52:00,60.3,58.5,29.59,WNW,285,0.0,2.0,94,0.05,,,0.05,meteohub,2013-06-02 06:52:00,
2013-06-02 02:57:00,60.3,58.3,29.58,West,259,0.0,2.0,93,0.05,,,0.05,meteohub,2013-06-02 06:57:00,
2013-06-02 03:02:00,60.1,57.7,29.58,WSW,251,0.0,2.0,92,0.05,,,0.05,meteohub,2013-06-02 07:02:00,
2013-06-02 03:07:00,60.1,58.1,29.58,WNW,285,0.0,2.0,93,0.05,,,0.05,meteohub,2013-06-02 07:07:00,
2013-06-02 03:12:00,60.1,58.1,29.58,SE,130,0.0,1.0,93,0.03,,,0.05,meteohub,2013-06-02 07:12:00,
2013-06-02 03:17:00,60.1,58.1,29.58,South,186,0.0,2.0,93,0.02,,,0.05,meteohub,2013-06-02 07:17:00,
2013-06-02 03:22:00,59.9,57.9,29.58,SSE,154,0.0,2.0,93,0.01,,,0.05,meteohub,2013-06-02 07:22:00,
2013-06-02 03:27:00,59.7,57.7,29.57,SSE,150,0.0,2.0,93,0.01,,,0.05,meteohub,2013-06-02 07:27:00,
2013-06-02 03:32:00,59.7,57.7,29.57,SSE,150,0.0,1.0,93,0.01,,,0.05,meteohub,2013-06-02 07:32:00,
2013-06-02 03:37:00,59.5,57.6,29.56,East,89,0.0,1.0,93,0.02,,,0.06,meteohub,2013-06-02 07:37:00,
2013-06-02 03:42:00,59.5,57.7,29.56,ENE,77,0.0,0.0,94,0.02,,,0.06,meteohub,2013-06-02 07:42:00,
2013-06-02 03:47:00,59.5,57.7,29.55,East,82,0.0,1.0,94,0.01,,,0.06,meteohub,2013-06-02 07:47:00,
2013-06-02 03:52:00,59.4,57.6,29.55,East,82,0.0,1.0,94,0.01,,,0.06,meteohub,2013-06-02 07:52:00,
2013-06-02 03:57:00,59.4,57.9,29.55,East,82,0.0,1.0,95,0.01,,,0.06,meteohub,2013-06-02 07:57:00,
2013-06-02 04:02:00,59.4,57.9,29.55,NNW,332,0.0,0.0,95,0.01,,,0.06,meteohub,2013-06-02 08:02:00,
2013-06-02 04:06:00,59.4,57.9,29.56,WSW,245,2.0,2.0,95,0.01,,,0.06,meteohub,2013-06-02 08:06:00,
2013-06-02 04:12:00,59.4,57.9,29.57,WNW,294,3.0,3.0,95,0.01,,,0.06,meteohub,2013-06-02 08:12:00,
2013-06-02 04:17:00,59.2,57.4,29.57,West,266,2.0,4.0,94,0.01,,,0.06,meteohub,2013-06-02 08:17:00,
2013-06-02 04:22:00,57.7,55.8,29.57,WNW,283,2.0,9.0,93,0.01,,,0.06,meteohub,2013-06-02 08:22:00,
2013-06-02 04:27:00,57.0,55.2,29.58,West,277,4.0,11.0,94,0.01,,,0.06,meteohub,2013-06-02 08:27:00,
2013-06-02 04:32:00,56.7,55.0,29.58,WNW,297,5.0,11.0,94,0.01,,,0.06,meteohub,2013-06-02 08:32:00,
2013-06-02 04:37:00,55.9,54.3,29.59,West,268,3.0,9.0,94,0.00,,,0.06,meteohub,2013-06-02 08:37:00,
2013-06-02 04:42:00,55.0,53.1,29.59,WNW,299,5.0,9.0,93,0.00,,,0.06,meteohub,2013-06-02 08:42:00,
2013-06-02 04:47:00,54.0,52.3,29.60,WSW,240,5.0,9.0,94,0.00,,,0.06,meteohub,2013-06-02 08:47:00,
2013-06-02 04:52:00,53.1,51.4,29.60,NNW,346,9.0,9.0,94,0.00,,,0.06,meteohub,2013-06-02 08:52:00,
2013-06-02 04:57:00,52.2,50.5,29.60,West,261,4.0,9.0,94,0.00,,,0.06,meteohub,2013-06-02 08:57:00,
2013-06-02 05:02:00,51.6,50.2,29.60,West,273,3.0,9.0,95,0.00,,,0.06,meteohub,2013-06-02 09:02:00,
2013-06-02 05:07:00,51.3,49.8,29.61,NNW,339,2.0,11.0,95,0.00,,,0.06,meteohub,2013-06-02 09:07:00,
2013-06-02 05:12:00,50.5,48.9,29.61,WSW,237,5.0,11.0,94,0.00,,,0.06,meteohub,2013-06-02 09:12:00,
2013-06-02 05:17:00,49.8,48.2,29.62,SW,230,10.0,12.0,94,0.00,,,0.06,meteohub,2013-06-02 09:17:00,
2013-06-02 05:22:00,49.5,47.8,29.62,WSW,237,1.0,14.0,94,0.00,,,0.06,meteohub,2013-06-02 09:22:00,
2013-06-02 05:27:00,49.3,47.8,29.62,West,270,6.0,14.0,95,0.00,,,0.06,meteohub,2013-06-02 09:27:00,
2013-06-02 05:32:00,49.1,47.7,29.62,West,269,3.0,14.0,95,0.00,,,0.06,meteohub,2013-06-02 09:32:00,
2013-06-02 05:37:00,48.9,47.5,29.62,WSW,238,1.0,9.0,95,0.00,,,0.06,meteohub,2013-06-02 09:37:00,
2013-06-02 05:42:00,48.7,47.3,29.62,SSW,205,1.0,9.0,95,0.00,,,0.06,meteohub,2013-06-02 09:42:00,
2013-06-02 05:47:00,48.6,47.1,29.62,WSW,244,1.0,8.0,95,0.00,,,0.06,meteohub,2013-06-02 09:47:00,
2013-06-02 05:52:00,48.4,46.9,29.62,WSW,252,2.0,8.0,95,0.00,,,0.06,meteohub,2013-06-02 09:52:00,
2013-06-02 05:57:00,48.0,46.6,29.62,SW,230,4.0,8.0,95,0.00,,,0.06,meteohub,2013-06-02 09:57:00,
2013-06-02 06:02:00,47.8,46.4,29.63,WNW,289,2.0,7.0,95,0.00,,,0.06,meteohub,2013-06-02 10:02:00,
2013-06-02 06:07:00,47.7,46.2,29.63,SW,235,2.0,7.0,95,0.00,,,0.06,meteohub,2013-06-02 10:07:00,
2013-06-02 06:12:00,47.5,46.0,29.63,SSW,205,1.0,7.0,95,0.00,,,0.06,meteohub,2013-06-02 10:12:00,
2013-06-02 06:17:00,47.3,45.9,29.63,SSE,168,0.0,7.0,95,0.01,,,0.07,meteohub,2013-06-02 10:17:00,
2013-06-02 06:22:00,47.1,45.7,29.64,NNE,26,1.0,7.0,95,0.02,,,0.08,meteohub,2013-06-02 10:22:00,
2013-06-02 06:27:00,46.9,45.5,29.64,West,261,2.0,5.0,95,0.02,,,0.08,meteohub,2013-06-02 10:27:00,
2013-06-02 06:32:00,46.8,45.1,29.64,SW,221,2.0,6.0,94,0.02,,,0.08,meteohub,2013-06-02 10:32:00,
2013-06-02 06:37:00,46.6,45.0,29.65,WSW,248,3.0,7.0,94,0.02,,,0.08,meteohub,2013-06-02 10:37:00,
2013-06-02 06:42:00,46.2,44.8,29.65,WSW,258,3.0,7.0,95,0.02,,,0.08,meteohub,2013-06-02 10:42:00,
2013-06-02 06:47:00,46.2,44.8,29.65,WSW,258,1.0,7.0,95,0.02,,,0.08,meteohub,2013-06-02 10:47:00,
2013-06-02 06:52:00,46.2,44.8,29.65,ESE,122,2.0,7.0,95,0.02,,,0.08,meteohub,2013-06-02 10:52:00,
2013-06-02 06:57:00,46.0,44.4,29.65,WSW,258,3.0,9.0,94,0.03,,,0.09,meteohub,2013-06-02 10:57:00,
2013-06-02 07:02:00,46.0,44.4,29.66,West,270,0.0,10.0,94,0.03,,,0.09,meteohub,2013-06-02 11:02:00,
2013-06-02 07:07:00,46.0,44.4,29.66,WSW,242,3.0,10.0,94,0.03,,,0.09,meteohub,2013-06-02 11:07:00,
2013-06-02 07:12:00,46.0,44.4,29.66,SSW,213,4.0,10.0,94,0.03,,,0.09,meteohub,2013-06-02 11:12:00,
2013-06-02 07:17:00,45.9,44.2,29.67,West,270,5.0,8.0,94,0.02,,,0.09,meteohub,2013-06-02 11:17:00,
2013-06-02 07:23:00,45.9,44.2,29.67,West,261,2.0,7.0,94,0.01,,,0.09,meteohub,2013-06-02 11:23:00,
2013-06-02 07:28:00,45.9,44.2,29.67,SW,218,1.0,7.0,94,0.02,,,0.10,meteohub,2013-06-02 11:28:00,
2013-06-02 07:33:00,45.9,44.2,29.67,West,279,7.0,7.0,94,0.02,,,0.10,meteohub,2013-06-02 11:33:00,
2013-06-02 07:38:00,45.9,44.2,29.68,SW,214,2.0,6.0,94,0.02,,,0.10,meteohub,2013-06-02 11:38:00,
2013-06-02 07:43:00,45.9,44.2,29.68,ESE,123,1.0,7.0,94,0.02,,,0.10,meteohub,2013-06-02 11:43:00,
2013-06-02 07:48:00,46.0,44.4,29.68,NW,321,1.0,7.0,94,0.02,,,0.10,meteohub,2013-06-02 11:48:00,
2013-06-02 07:53:00,46.0,44.4,29.68,SSW,212,4.0,6.0,94,0.02,,,0.10,meteohub,2013-06-02 11:53:00,
2013-06-02 07:58:00,46.0,44.4,29.68,SW,221,2.0,7.0,94,0.01,,,0.10,meteohub,2013-06-02 11:58:00,
2013-06-02 08:03:00,46.0,44.4,29.69,SSW,199,1.0,7.0,94,0.01,,,0.10,meteohub,2013-06-02 12:03:00,
2013-06-02 08:08:00,46.2,44.6,29.70,SSW,212,1.0,7.0,94,0.01,,,0.10,meteohub,2013-06-02 12:08:00,
2013-06-02 08:13:00,46.0,44.4,29.70,WSW,248,3.0,5.0,94,0.01,,,0.10,meteohub,2013-06-02 12:13:00,
2013-06-02 08:18:00,45.9,44.2,29.70,SW,235,1.0,6.0,94,0.01,,,0.10,meteohub,2013-06-02 12:18:00,
2013-06-02 08:23:00,45.7,44.1,29.71,SW,229,3.0,8.0,94,0.01,,,0.10,meteohub,2013-06-02 12:23:00,
2013-06-02 08:28:00,45.3,43.7,29.71,SW,223,0.0,10.0,94,0.00,,,0.10,meteohub,2013-06-02 12:28:00,
2013-06-02 08:33:00,45.3,43.7,29.72,West,270,1.0,10.0,94,0.01,,,0.11,meteohub,2013-06-02 12:33:00,
2013-06-02 08:38:00,45.1,43.5,29.72,WSW,252,1.0,10.0,94,0.01,,,0.11,meteohub,2013-06-02 12:38:00,
2013-06-02 08:43:00,45.0,43.3,29.73,ENE,68,1.0,6.0,94,0.01,,,0.11,meteohub,2013-06-02 12:43:00,
2013-06-02 08:48:00,45.0,43.7,29.73,NNW,328,2.0,6.0,95,0.01,,,0.11,meteohub,2013-06-02 12:48:00,
2013-06-02 08:53:00,45.0,43.7,29.73,WSW,256,7.0,7.0,95,0.01,,,0.11,meteohub,2013-06-02 12:53:00,
2013-06-02 08:58:00,44.8,43.2,29.73,NNW,335,6.0,7.0,94,0.01,,,0.11,meteohub,2013-06-02 12:58:00,
2013-06-02 09:03:00,44.8,43.2,29.73,SW,231,4.0,7.0,94,0.02,,,0.12,meteohub,2013-06-02 13:03:00,
2013-06-02 09:08:00,44.4,42.8,29.74,WSW,255,3.0,7.0,94,0.02,,,0.12,meteohub,2013-06-02 13:08:00,
2013-06-02 09:13:00,44.2,43.0,29.74,WSW,238,8.0,12.0,95,0.02,,,0.12,meteohub,2013-06-02 13:13:00,
2013-06-02 09:18:00,44.4,42.8,29.74,WNW,297,3.0,12.0,94,0.02,,,0.12,meteohub,2013-06-02 13:18:00,
2013-06-02 09:23:00,44.4,42.8,29.74,SW,221,0.0,10.0,94,0.02,,,0.12,meteohub,2013-06-02 13:23:00,
2013-06-02 09:28:00,44.4,42.8,29.74,NW,317,6.0,10.0,94,0.02,,,0.12,meteohub,2013-06-02 13:28:00,
2013-06-02 09:33:00,44.4,42.8,29.75,NNW,333,3.0,8.0,94,0.01,,,0.12,meteohub,2013-06-02 13:33:00,
2013-06-02 09:38:00,44.6,43.0,29.75,South,185,3.0,8.0,94,0.01,,,0.12,meteohub,2013-06-02 13:38:00,
2013-06-02 09:43:00,44.6,43.0,29.75,WSW,241,7.0,9.0,94,0.01,,,0.12,meteohub,2013-06-02 13:43:00,
2013-06-02 09:48:00,44.4,42.8,29.75,NW,309,2.0,9.0,94,0.01,,,0.12,meteohub,2013-06-02 13:48:00,
2013-06-02 09:53:00,44.4,42.4,29.75,SSW,192,6.0,10.0,93,0.01,,,0.12,meteohub,2013-06-02 13:53:00,
2013-06-02 09:58:00,44.2,42.3,29.76,WSW,248,3.0,13.0,93,0.01,,,0.12,meteohub,2013-06-02 13:58:00,
2013-06-02 10:03:00,44.1,42.1,29.76,WSW,240,4.0,13.0,93,0.00,,,0.12,meteohub,2013-06-02 14:03:00,
2013-06-02 10:08:00,44.1,42.4,29.77,West,271,2.0,13.0,94,0.00,,,0.12,meteohub,2013-06-02 14:08:00,
2013-06-02 10:14:00,44.1,42.4,29.77,WNW,285,3.0,12.0,94,0.00,,,0.12,meteohub,2013-06-02 14:14:00,
2013-06-02 10:19:00,44.2,42.6,29.77,WNW,287,2.0,9.0,94,0.00,,,0.12,meteohub,2013-06-02 14:19:00,
2013-06-02 10:24:00,44.2,42.6,29.77,SW,231,1.0,9.0,94,0.00,,,0.12,meteohub,2013-06-02 14:24:00,
2013-06-02 10:29:00,44.2,42.6,29.78,West,270,2.0,8.0,94,0.00,,,0.12,meteohub,2013-06-02 14:29:00,
2013-06-02 10:34:00,44.1,42.1,29.78,WSW,252,3.0,8.0,93,0.00,,,0.12,meteohub,2013-06-02 14:34:00,
2013-06-02 10:39:00,44.1,42.1,29.78,SSW,203,4.0,9.0,93,0.00,,,0.12,meteohub,2013-06-02 14:39:00,
2013-06-02 10:44:00,43.9,42.3,29.78,West,275,2.0,10.0,94,0.00,,,0.12,meteohub,2013-06-02 14:44:00,
2013-06-02 10:49:00,44.1,42.8,29.78,WNW,283,3.0,10.0,95,0.00,,,0.12,meteohub,2013-06-02 14:49:00,
2013-06-02 10:54:00,43.7,41.7,29.79,SW,221,6.0,10.0,93,0.00,,,0.12,meteohub,2013-06-02 14:54:00,
2013-06-02 10:59:00,43.7,42.1,29.79,WSW,247,9.0,12.0,94,0.00,,,0.12,meteohub,2013-06-02 14:59:00,
2013-06-02 11:04:00,43.9,42.3,29.79,North,4,3.0,12.0,94,0.00,,,0.12,meteohub,2013-06-02 15:04:00,
2013-06-02 11:09:00,43.5,41.9,29.80,West,262,7.0,12.0,94,0.00,,,0.12,meteohub,2013-06-02 15:09:00,
2013-06-02 11:14:00,43.5,41.9,29.80,South,190,5.0,10.0,94,0.00,,,0.12,meteohub,2013-06-02 15:14:00,
2013-06-02 11:19:00,43.5,41.9,29.80,WSW,242,3.0,12.0,94,0.00,,,0.12,meteohub,2013-06-02 15:19:00,
2013-06-02 11:24:00,43.5,41.9,29.81,SW,234,5.0,12.0,94,0.00,,,0.12,meteohub,2013-06-02 15:24:00,
2013-06-02 11:29:00,43.5,41.9,29.81,SW,233,4.0,12.0,94,0.00,,,0.12,meteohub,2013-06-02 15:29:00,
2013-06-02 11:34:00,43.5,41.7,29.81,WSW,252,4.0,11.0,93,0.00,,,0.12,meteohub,2013-06-02 15:34:00,
2013-06-02 11:39:00,43.5,41.7,29.82,WSW,247,2.0,9.0,93,0.00,,,0.12,meteohub,2013-06-02 15:39:00,
2013-06-02 11:44:00,43.5,41.7,29.82,WSW,256,3.0,9.0,93,0.00,,,0.12,meteohub,2013-06-02 15:44:00,
2013-06-02 11:49:00,43.3,41.5,29.83,West,263,3.0,12.0,93,0.00,,,0.12,meteohub,2013-06-02 15:49:00,
2013-06-02 11:54:00,43.3,41.5,29.83,WNW,285,4.0,12.0,93,0.00,,,0.12,meteohub,2013-06-02 15:54:00,
2013-06-02 11:59:00,43.3,41.7,29.83,WSW,241,4.0,12.0,94,0.00,,,0.12,meteohub,2013-06-02 15:59:00,
2013-06-02 12:04:00,43.3,41.7,29.83,West,276,3.0,12.0,94,0.00,,,0.12,meteohub,2013-06-02 16:04:00,
2013-06-02 12:09:00,43.3,41.7,29.83,WSW,246,11.0,12.0,94,0.00,,,0.12,meteohub,2013-06-02 16:09:00,
2013-06-02 12:14:00,43.3,41.5,29.83,SW,220,4.0,12.0,93,0.00,,,0.12,meteohub,2013-06-02 16:14:00,
2013-06-02 12:19:00,43.3,41.5,29.84,WNW,288,5.0,12.0,93,0.00,,,0.12,meteohub,2013-06-02 16:19:00,
2013-06-02 12:24:00,43.5,41.7,29.84,NW,322,6.0,12.0,93,0.00,,,0.12,meteohub,2013-06-02 16:24:00,
2013-06-02 12:29:00,43.7,41.7,29.84,South,176,3.0,11.0,93,0.00,,,0.12,meteohub,2013-06-02 16:29:00,
2013-06-02 12:34:00,43.7,41.7,29.85,West,279,4.0,11.0,93,0.00,,,0.12,meteohub,2013-06-02 16:34:00,
2013-06-02 12:39:00,43.9,41.9,29.84,NW,307,3.0,13.0,93,0.00,,,0.12,meteohub,2013-06-02 16:39:00,
2013-06-02 12:44:00,44.1,42.1,29.85,SSW,208,4.0,13.0,93,0.00,,,0.12,meteohub,2013-06-02 16:44:00,
2013-06-02 12:49:00,44.1,41.9,29.85,NW,305,5.0,13.0,92,0.00,,,0.12,meteohub,2013-06-02 16:49:00,
2013-06-02 12:54:00,44.1,41.9,29.85,South,179,7.0,10.0,92,0.00,,,0.12,meteohub,2013-06-02 16:54:00,
2013-06-02 12:59:00,44.1,41.9,29.86,WSW,254,3.0,10.0,92,0.00,,,0.12,meteohub,2013-06-02 16:59:00,
2013-06-02 13:04:00,44.2,42.1,29.86,SW,216,4.0,12.0,92,0.00,,,0.12,meteohub,2013-06-02 17:04:00,
2013-06-02 13:09:00,44.2,41.7,29.86,NW,310,4.0,12.0,91,0.00,,,0.12,meteohub,2013-06-02 17:09:00,
2013-06-02 13:14:00,44.4,41.9,29.86,NW,318,2.0,12.0,91,0.00,,,0.12,meteohub,2013-06-02 17:14:00,
2013-06-02 13:19:00,44.4,41.7,29.86,ESE,119,3.0,12.0,90,0.00,,,0.12,meteohub,2013-06-02 17:19:00,
2013-06-02 13:24:00,44.4,41.7,29.86,WNW,298,8.0,11.0,90,0.00,,,0.12,meteohub,2013-06-02 17:24:00,
2013-06-02 13:30:00,44.6,41.5,29.86,WSW,257,3.0,14.0,89,0.00,,,0.12,meteohub,2013-06-02 17:30:00,
2013-06-02 13:35:00,44.8,41.7,29.87,West,271,3.0,14.0,89,0.00,,,0.12,meteohub,2013-06-02 17:35:00,
2013-06-02 13:40:00,44.8,41.7,29.86,West,276,5.0,14.0,89,0.00,,,0.12,meteohub,2013-06-02 17:40:00,
2013-06-02 13:45:00,44.8,41.7,29.87,WSW,247,3.0,12.0,89,0.00,,,0.12,meteohub,2013-06-02 17:45:00,
2013-06-02 13:50:00,44.8,41.7,29.87,West,268,1.0,12.0,89,0.00,,,0.12,meteohub,2013-06-02 17:50:00,
2013-06-02 13:55:00,44.6,41.5,29.87,West,278,6.0,10.0,89,0.00,,,0.12,meteohub,2013-06-02 17:55:00,
2013-06-02 14:00:00,44.4,41.7,29.88,WNW,287,3.0,11.0,90,0.00,,,0.12,meteohub,2013-06-02 18:00:00,
2013-06-02 14:05:00,44.4,41.9,29.88,SSW,203,6.0,12.0,91,0.00,,,0.12,meteohub,2013-06-02 18:05:00,
2013-06-02 14:10:00,44.4,41.7,29.88,WSW,248,4.0,12.0,90,0.00,,,0.12,meteohub,2013-06-02 18:10:00,
2013-06-02 14:15:00,44.6,41.5,29.88,WSW,244,4.0,12.0,89,0.00,,,0.12,meteohub,2013-06-02 18:15:00,
2013-06-02 14:20:00,45.0,41.9,29.89,WNW,292,3.0,10.0,89,0.00,,,0.12,meteohub,2013-06-02 18:20:00,
2013-06-02 14:25:00,45.3,41.9,29.89,WNW,290,7.0,10.0,88,0.00,,,0.12,meteohub,2013-06-02 18:25:00,
2013-06-02 14:30:00,45.3,41.7,29.89,WNW,290,3.0,12.0,87,0.00,,,0.12,meteohub,2013-06-02 18:30:00,
2013-06-02 14:35:00,45.3,41.7,29.89,West,269,4.0,12.0,87,0.00,,,0.12,meteohub,2013-06-02 18:35:00,
2013-06-02 14:40:00,45.5,41.5,29.90,West,276,6.0,12.0,86,0.00,,,0.12,meteohub,2013-06-02 18:40:00,
2013-06-02 14:45:00,45.7,41.7,29.90,West,275,3.0,10.0,86,0.00,,,0.12,meteohub,2013-06-02 18:45:00,
2013-06-02 14:50:00,45.7,41.7,29.91,WSW,243,4.0,8.0,86,0.00,,,0.12,meteohub,2013-06-02 18:50:00,
2013-06-02 14:55:00,45.7,41.4,29.91,SW,217,2.0,9.0,85,0.00,,,0.12,meteohub,2013-06-02 18:55:00,
2013-06-02 15:00:00,46.0,41.7,29.91,SW,230,3.0,9.0,85,0.00,,,0.12,meteohub,2013-06-02 19:00:00,
2013-06-02 15:05:00,46.4,42.1,29.91,WSW,241,1.0,9.0,85,0.00,,,0.12,meteohub,2013-06-02 19:05:00,
2013-06-02 15:10:00,46.6,41.7,29.91,WSW,253,6.0,10.0,83,0.00,,,0.12,meteohub,2013-06-02 19:10:00,
2013-06-02 15:15:00,46.2,41.7,29.92,WSW,241,5.0,10.0,84,0.00,,,0.12,meteohub,2013-06-02 19:15:00,
2013-06-02 15:20:00,46.2,41.9,29.92,NW,315,2.0,10.0,85,0.00,,,0.12,meteohub,2013-06-02 19:20:00,
2013-06-02 15:25:00,46.6,42.3,29.92,SSW,197,2.0,9.0,85,0.00,,,0.12,meteohub,2013-06-02 19:25:00,
2013-06-02 15:30:00,46.6,41.7,29.93,West,265,6.0,9.0,83,0.00,,,0.12,meteohub,2013-06-02 19:30:00,
2013-06-02 15:35:00,46.4,41.5,29.93,NNE,23,3.0,9.0,83,0.00,,,0.12,meteohub,2013-06-02 19:35:00,
2013-06-02 15:40:00,46.4,41.5,29.93,North,357,4.0,9.0,83,0.00,,,0.12,meteohub,2013-06-02 19:40:00,
2013-06-02 15:45:00,46.2,41.0,29.92,WSW,247,2.0,13.0,82,0.00,,,0.12,meteohub,2013-06-02 19:45:00,
2013-06-02 15:50:00,46.2,41.4,29.93,West,264,11.0,14.0,83,0.00,,,0.12,meteohub,2013-06-02 19:50:00,
2013-06-02 15:55:00,46.2,41.4,29.93,West,273,10.0,14.0,83,0.00,,,0.12,meteohub,2013-06-02 19:55:00,
2013-06-02 16:00:00,46.2,41.0,29.93,West,280,5.0,14.0,82,0.00,,,0.12,meteohub,2013-06-02 20:00:00,
2013-06-02 16:05:00,46.2,41.0,29.93,NNW,345,6.0,13.0,82,0.00,,,0.12,meteohub,2013-06-02 20:05:00,
2013-06-02 16:10:00,46.2,40.6,29.93,West,273,5.0,13.0,81,0.00,,,0.12,meteohub,2013-06-02 20:10:00,
2013-06-02 16:15:00,46.2,41.0,29.93,NW,318,7.0,11.0,82,0.00,,,0.12,meteohub,2013-06-02 20:15:00,
2013-06-02 16:20:00,46.6,41.7,29.94,WSW,241,5.0,11.0,83,0.00,,,0.12,meteohub,2013-06-02 20:20:00,
2013-06-02 16:25:00,46.6,41.4,29.94,NW,306,2.0,12.0,82,0.00,,,0.12,meteohub,2013-06-02 20:25:00,
2013-06-02 16:30:00,46.8,41.2,29.94,SSW,213,3.0,12.0,81,0.00,,,0.12,meteohub,2013-06-02 20:30:00,
2013-06-02 16:35:00,46.6,41.0,29.94,WNW,294,8.0,12.0,81,0.00,,,0.12,meteohub,2013-06-02 20:35:00,
2013-06-02 16:40:00,46.6,41.4,29.94,WSW,257,3.0,15.0,82,0.00,,,0.12,meteohub,2013-06-02 20:40:00,
2013-06-02 16:45:00,46.8,41.5,29.94,NW,311,4.0,15.0,82,0.00,,,0.12,meteohub,2013-06-02 20:45:00,
2013-06-02 16:51:00,46.8,41.2,29.94,WSW,240,3.0,15.0,81,0.00,,,0.12,meteohub,2013-06-02 20:51:00,
2013-06-02 16:56:00,46.4,40.8,29.94,SW,234,5.0,11.0,81,0.00,,,0.12,meteohub,2013-06-02 20:56:00,
2013-06-02 17:01:00,46.6,41.4,29.94,NNW,342,5.0,15.0,82,0.00,,,0.12,meteohub,2013-06-02 21:01:00,
2013-06-02 17:06:00,46.6,41.0,29.94,SSE,164,1.0,15.0,81,0.00,,,0.12,meteohub,2013-06-02 21:06:00,
2013-06-02 17:11:00,46.6,41.0,29.94,SSW,192,2.0,15.0,81,0.00,,,0.12,meteohub,2013-06-02 21:11:00,
2013-06-02 17:16:00,46.8,41.0,29.94,West,268,5.0,14.0,80,0.00,,,0.12,meteohub,2013-06-02 21:16:00,
2013-06-02 17:21:00,46.9,41.4,29.94,NW,322,5.0,12.0,81,0.00,,,0.12,meteohub,2013-06-02 21:21:00,
2013-06-02 17:26:00,46.8,41.0,29.94,SSW,196,5.0,12.0,80,0.00,,,0.12,meteohub,2013-06-02 21:26:00,
2013-06-02 17:31:00,46.8,41.2,29.95,West,278,3.0,14.0,81,0.00,,,0.12,meteohub,2013-06-02 21:31:00,
2013-06-02 17:36:00,46.9,41.2,29.95,WSW,243,3.0,14.0,80,0.00,,,0.12,meteohub,2013-06-02 21:36:00,
2013-06-02 17:41:00,46.9,41.2,29.95,West,262,3.0,14.0,80,0.00,,,0.12,meteohub,2013-06-02 21:41:00,
2013-06-02 17:46:00,46.9,40.8,29.96,WSW,258,4.0,10.0,79,0.00,,,0.12,meteohub,2013-06-02 21:46:00,
2013-06-02 17:51:00,46.9,40.8,29.96,NNW,333,8.0,10.0,79,0.00,,,0.12,meteohub,2013-06-02 21:51:00,
2013-06-02 17:56:00,46.9,40.8,29.96,WNW,285,4.0,10.0,79,0.00,,,0.12,meteohub,2013-06-02 21:56:00,
2013-06-02 18:01:00,46.9,40.1,29.96,NNE,20,5.0,12.0,77,0.00,,,0.12,meteohub,2013-06-02 22:01:00,
2013-06-02 18:06:00,46.8,40.3,29.96,SW,224,2.0,14.0,78,0.00,,,0.12,meteohub,2013-06-02 22:06:00,
2013-06-02 18:11:00,46.8,39.9,29.96,NNW,337,4.0,14.0,77,0.00,,,0.12,meteohub,2013-06-02 22:11:00,
2013-06-02 18:16:00,46.8,39.9,29.96,WSW,247,5.0,13.0,77,0.00,,,0.12,meteohub,2013-06-02 22:16:00,
2013-06-02 18:21:00,46.6,39.4,29.97,West,280,8.0,12.0,76,0.00,,,0.12,meteohub,2013-06-02 22:21:00,
2013-06-02 18:26:00,46.6,39.7,29.97,NW,322,2.0,12.0,77,0.00,,,0.12,meteohub,2013-06-02 22:26:00,
2013-06-02 18:31:00,46.4,39.9,29.97,SSW,206,2.0,12.0,78,0.00,,,0.12,meteohub,2013-06-02 22:31:00,
2013-06-02 18:36:00,46.2,39.0,29.97,West,270,3.0,11.0,76,0.00,,,0.12,meteohub,2013-06-02 22:36:00,
2013-06-02 18:41:00,46.2,39.4,29.97,West,273,7.0,13.0,77,0.00,,,0.12,meteohub,2013-06-02 22:41:00,
2013-06-02 18:46:00,46.0,39.2,29.97,WNW,292,3.0,13.0,77,0.00,,,0.12,meteohub,2013-06-02 22:46:00,
2013-06-02 18:51:00,46.0,38.8,29.97,WNW,287,5.0,11.0,76,0.00,,,0.12,meteohub,2013-06-02 22:51:00,
2013-06-02 18:56:00,46.0,39.2,29.98,WNW,292,6.0,10.0,77,0.00,,,0.12,meteohub,2013-06-02 22:56:00,
2013-06-02 19:01:00,46.0,39.2,29.98,NW,312,1.0,10.0,77,0.00,,,0.12,meteohub,2013-06-02 23:01:00,
2013-06-02 19:06:00,46.0,39.2,29.98,SSW,194,4.0,10.0,77,0.00,,,0.12,meteohub,2013-06-02 23:06:00,
2013-06-02 19:11:00,46.0,39.2,29.98,West,264,0.0,8.0,77,0.00,,,0.12,meteohub,2013-06-02 23:11:00,
2013-06-02 19:16:00,46.2,39.7,29.98,North,8,1.0,8.0,78,0.00,,,0.12,meteohub,2013-06-02 23:16:00,
2013-06-02 19:21:00,46.2,39.0,29.98,WSW,258,3.0,8.0,76,0.00,,,0.12,meteohub,2013-06-02 23:21:00,
2013-06-02 19:26:00,46.2,39.4,29.98,NNW,330,0.0,8.0,77,0.00,,,0.12,meteohub,2013-06-02 23:26:00,
2013-06-02 19:31:00,46.2,39.4,29.98,WNW,285,4.0,7.0,77,0.00,,,0.12,meteohub,2013-06-02 23:31:00,
2013-06-02 19:36:00,46.2,39.4,29.99,NNW,327,1.0,7.0,77,0.00,,,0.12,meteohub,2013-06-02 23:36:00,
2013-06-02 19:42:00,46.6,39.7,29.99,South,189,2.0,6.0,77,0.00,,,0.12,meteohub,2013-06-02 23:42:00,
2013-06-02 19:47:00,46.4,39.6,29.99,NNW,329,4.0,6.0,77,0.00,,,0.12,meteohub,2013-06-02 23:47:00,
2013-06-02 19:52:00,46.6,39.4,29.99,WNW,302,0.0,5.0,76,0.00,,,0.12,meteohub,2013-06-02 23:52:00,
2013-06-02 19:57:00,46.8,39.2,29.99,West,262,2.0,5.0,75,0.00,,,0.12,meteohub,2013-06-02 23:57:00,
2013-06-02 20:02:00,46.9,39.4,29.99,SW,235,5.0,5.0,75,0.00,,,0.12,meteohub,2013-06-03 00:02:00,
2013-06-02 20:06:00,47.3,39.4,29.99,WNW,299,5.0,6.0,74,0.00,,,0.00,meteohub,2013-06-03 00:06:00,
2013-06-02 20:12:00,47.5,39.2,29.99,West,272,8.0,8.0,73,0.00,,,0.00,meteohub,2013-06-03 00:12:00,
2013-06-02 20:17:00,47.8,39.6,30.00,SW,230,4.0,10.0,73,0.00,,,0.00,meteohub,2013-06-03 00:17:00,
2013-06-02 20:22:00,48.0,39.4,30.00,NW,311,2.0,10.0,72,0.00,,,0.00,meteohub,2013-06-03 00:22:00,
2013-06-02 20:27:00,48.0,39.4,30.00,WSW,257,2.0,10.0,72,0.00,,,0.00,meteohub,2013-06-03 00:27:00,
2013-06-02 20:32:00,47.3,38.7,30.00,WSW,246,2.0,7.0,72,0.00,,,0.00,meteohub,2013-06-03 00:32:00,
2013-06-02 20:37:00,46.6,38.5,30.00,South,175,1.0,8.0,73,0.00,,,0.00,meteohub,2013-06-03 00:37:00,
2013-06-02 20:42:00,46.2,38.7,30.00,WNW,299,1.0,8.0,75,0.00,,,0.00,meteohub,2013-06-03 00:42:00,
2013-06-02 20:47:00,45.9,38.3,30.00,West,268,2.0,7.0,75,0.00,,,0.00,meteohub,2013-06-03 00:47:00,
2013-06-02 20:52:00,45.5,38.7,30.00,WSW,254,1.0,7.0,77,0.00,,,0.00,meteohub,2013-06-03 00:52:00,
2013-06-02 20:57:00,45.1,38.7,30.00,WSW,247,0.0,3.0,78,0.00,,,0.00,meteohub,2013-06-03 00:57:00,
2013-06-02 21:02:00,45.0,38.5,30.00,West,281,0.0,5.0,78,0.00,,,0.00,meteohub,2013-06-03 01:02:00,
2013-06-02 21:07:00,44.8,38.3,30.00,West,261,0.0,5.0,78,0.00,,,0.00,meteohub,2013-06-03 01:07:00,
2013-06-02 21:12:00,44.4,38.3,30.00,SW,219,0.0,5.0,79,0.00,,,0.00,meteohub,2013-06-03 01:12:00,
2013-06-02 21:17:00,44.2,38.1,30.00,NW,307,1.0,3.0,79,0.00,,,0.00,meteohub,2013-06-03 01:17:00,
2013-06-02 21:22:00,44.1,38.3,30.00,SSW,213,0.0,3.0,80,0.00,,,0.00,meteohub,2013-06-03 01:22:00,
2013-06-02 21:27:00,43.7,37.9,30.00,SSW,194,0.0,3.0,80,0.00,,,0.00,meteohub,2013-06-03 01:27:00,
2013-06-02 21:32:00,43.7,37.9,30.00,SSW,212,1.0,3.0,80,0.00,,,0.00,meteohub,2013-06-03 01:32:00,
2013-06-02 21:37:00,43.5,37.8,30.01,WSW,250,0.0,3.0,80,0.00,,,0.00,meteohub,2013-06-03 01:37:00,
2013-06-02 21:42:00,43.3,37.6,30.01,WNW,297,1.0,3.0,80,0.00,,,0.00,meteohub,2013-06-03 01:42:00,
2013-06-02 21:47:00,43.2,37.8,30.01,NW,313,0.0,3.0,81,0.00,,,0.00,meteohub,2013-06-03 01:47:00,
2013-06-02 21:52:00,43.0,37.6,30.01,North,352,0.0,3.0,81,0.00,,,0.00,meteohub,2013-06-03 01:52:00,
2013-06-02 21:57:00,42.8,37.4,30.01,North,352,0.0,1.0,81,0.00,,,0.00,meteohub,2013-06-03 01:57:00,
2013-06-02 22:02:00,42.6,37.6,30.01,North,352,0.0,1.0,82,0.00,,,0.00,meteohub,2013-06-03 02:02:00,
2013-06-02 22:07:00,42.4,37.6,30.01,North,352,0.0,1.0,83,0.00,,,0.00,meteohub,2013-06-03 02:07:00,
2013-06-02 22:12:00,42.1,37.6,30.01,North,352,0.0,1.0,84,0.00,,,0.00,meteohub,2013-06-03 02:12:00,
2013-06-02 22:17:00,41.7,36.9,30.01,NNW,348,0.0,1.0,83,0.00,,,0.00,meteohub,2013-06-03 02:17:00,
2013-06-02 22:22:00,41.7,36.9,30.01,West,277,0.0,2.0,83,0.00,,,0.00,meteohub,2013-06-03 02:22:00,
2013-06-02 22:27:00,42.1,37.0,30.01,WNW,285,1.0,3.0,82,0.00,,,0.00,meteohub,2013-06-03 02:27:00,
2013-06-02 22:32:00,42.3,36.9,30.01,WNW,282,1.0,4.0,81,0.00,,,0.00,meteohub,2013-06-03 02:32:00,
2013-06-02 22:37:00,42.3,36.9,30.01,WSW,252,0.0,4.0,81,0.00,,,0.00,meteohub,2013-06-03 02:37:00,
2013-06-02 22:42:00,42.3,36.9,30.01,WNW,283,0.0,2.0,81,0.00,,,0.00,meteohub,2013-06-03 02:42:00,
2013-06-02 22:47:00,42.3,36.9,30.02,WNW,289,0.0,2.0,81,0.00,,,0.00,meteohub,2013-06-03 02:47:00,
2013-06-02 22:52:00,42.3,36.9,30.02,WNW,293,0.0,2.0,81,0.00,,,0.00,meteohub,2013-06-03 02:52:00,
2013-06-02 22:57:00,42.1,37.0,30.01,WNW,293,0.0,2.0,82,0.00,,,0.00,meteohub,2013-06-03 02:57:00,
2013-06-02 23:02:00,41.7,36.7,30.02,WSW,250,0.0,1.0,82,0.00,,,0.00,meteohub,2013-06-03 03:02:00,
2013-06-02 23:07:00,41.7,36.9,30.02,NW,314,0.0,1.0,83,0.00,,,0.00,meteohub,2013-06-03 03:07:00,
2013-06-02 23:12:00,41.5,36.7,30.02,WNW,290,1.0,1.0,83,0.00,,,0.00,meteohub,2013-06-03 03:12:00,
2013-06-02 23:17:00,41.0,36.9,30.01,WNW,290,0.0,1.0,85,0.00,,,0.00,meteohub,2013-06-03 03:17:00,
2013-06-02 23:22:00,40.1,36.5,30.02,ESE,119,0.0,1.0,87,0.00,,,0.00,meteohub,2013-06-03 03:22:00,
2013-06-02 23:27:00,39.4,36.1,30.01,ESE,107,1.0,1.0,88,0.00,,,0.00,meteohub,2013-06-03 03:27:00,
2013-06-02 23:32:00,38.8,36.1,30.02,ESE,109,0.0,1.0,90,0.00,,,0.00,meteohub,2013-06-03 03:32:00,
2013-06-02 23:37:00,38.5,36.1,30.02,SE,125,0.0,1.0,91,0.00,,,0.00,meteohub,2013-06-03 03:37:00,
2013-06-02 23:42:00,38.1,36.0,30.02,SE,124,0.0,1.0,92,0.00,,,0.00,meteohub,2013-06-03 03:42:00,
2013-06-02 23:47:00,37.9,35.8,30.02,SE,125,0.0,1.0,92,0.00,,,0.00,meteohub,2013-06-03 03:47:00,
2013-06-02 23:52:00,37.8,36.0,30.02,ESE,109,0.0,1.0,93,0.00,,,0.00,meteohub,2013-06-03 03:52:00,
2013-06-02 23:57:00,37.8,36.0,30.02,East,98,0.0,1.0,93,0.00,,,0.00,meteohub,2013-06-03 03:57:00,